| time (UTC) | temp F | wind direction | speed MPH | gust MPH | rain 1hr in | rain 24hr in | rain mn in | humidity % | barometer mb |
| 20260504100326 | 40 | 321 | 0.0 | 0.0 | 0.00 | 0.00 | 0.00 | 89 | 1013.6 |
| 20260504081720 | 41 | 311 | 0.0 | 0.0 | 0.00 | 0.00 | 0.00 | 89 | 1014.0 |
| 20260504081216 | 42 | 309 | 0.0 | 0.0 | 0.00 | 0.00 | 0.00 | 86 | 1013.9 |
| 20260504080713 | 42 | 300 | 0.0 | 0.0 | 0.00 | 0.00 | 0.00 | 84 | 1014.1 |
| 20260504080209 | 42 | 270 | 0.0 | 0.0 | 0.00 | 0.00 | 0.00 | 82 | 1013.9 |
| 20260504070137 | 41 | 226 | 0.0 | 1.0 | 0.00 | 0.00 | 0.00 | 81 | 1014.2 |
| 20260504050526 | 42 | 281 | 0.0 | 0.0 | 0.00 | 0.00 | 0.00 | 80 | 1014.7 |
| 20260504050023 | 41 | 287 | 0.0 | 0.0 | 0.00 | 0.00 | 0.00 | 79 | 1014.8 |
| 20260504045519 | 40 | 264 | 0.0 | 1.0 | 0.00 | 0.00 | 0.00 | 84 | 1014.9 |
| 20260504045015 | 40 | 301 | 0.0 | 0.0 | 0.00 | 0.00 | 0.00 | 85 | 1014.8 |
| 20260504044513 | 40 | 299 | 0.0 | 0.0 | 0.00 | 0.00 | 0.00 | 84 | 1014.7 |
| 20260504044009 | 41 | 318 | 0.0 | 0.0 | 0.00 | 0.00 | 0.00 | 82 | 1014.7 |
| 20260504043506 | 43 | 299 | 0.0 | 0.0 | 0.00 | 0.00 | 0.00 | 78 | 1014.5 |
| 20260504043004 | 46 | 296 | 0.0 | 0.0 | 0.00 | 0.00 | 0.00 | 68 | 1015.0 |
| 20260504042500 | 46 | 281 | 2.0 | 2.0 | 0.00 | 0.00 | 0.00 | 67 | 1014.5 |
| 20260504041957 | 44 | 290 | 0.0 | 2.0 | 0.00 | 0.00 | 0.00 | 67 | 1014.7 |
| 20260504041453 | 44 | 276 | 0.0 | 1.0 | 0.00 | 0.00 | 0.00 | 73 | 1014.5 |
| 20260504040949 | 42 | 217 | 2.0 | 3.0 | 0.00 | 0.00 | 0.00 | 76 | 1014.4 |
| 20260504040447 | 43 | 243 | 0.0 | 1.0 | 0.00 | 0.00 | 0.00 | 79 | 1014.3 |
| 20260504035943 | 44 | 306 | 0.0 | 0.0 | 0.00 | 0.00 | 0.00 | 68 | 1014.5 |
| 20260504035441 | 44 | 307 | 0.0 | 0.0 | 0.00 | 0.00 | 0.00 | 69 | 1014.4 |
| 20260504034937 | 44 | 308 | 0.0 | 0.0 | 0.00 | 0.00 | 0.00 | 70 | 1014.5 |
| 20260504034435 | 44 | 308 | 0.0 | 0.0 | 0.00 | 0.00 | 0.00 | 70 | 1014.4 |
| 20260504033931 | 43 | 314 | 0.0 | 0.0 | 0.00 | 0.00 | 0.00 | 74 | 1014.5 |
| 20260504033429 | 44 | 320 | 0.0 | 0.0 | 0.00 | 0.00 | 0.00 | 72 | 1014.2 |
| 20260504032926 | 44 | 295 | 0.0 | 0.0 | 0.00 | 0.00 | 0.00 | 72 | 1014.4 |
| 20260504032423 | 45 | 318 | 0.0 | 0.0 | 0.00 | 0.00 | 0.00 | 70 | 1014.2 |
| 20260504031920 | 47 | 351 | 0.0 | 0.0 | 0.00 | 0.00 | 0.00 | 67 | 1014.3 |
| 20260504031417 | 48 | 289 | 0.0 | 0.0 | 0.00 | 0.00 | 0.00 | 58 | 1014.4 |
| 20260504030913 | 48 | 294 | 0.0 | 0.0 | 0.00 | 0.00 | 0.00 | 61 | 1014.2 |
| 20260504030410 | 47 | 250 | 0.0 | 2.0 | 0.00 | 0.00 | 0.00 | 60 | 1014.4 |
| 20260504025906 | 46 | 219 | 1.0 | 2.0 | 0.00 | 0.00 | 0.00 | 67 | 1014.4 |
| 20260504025403 | 46 | 285 | 1.0 | 1.0 | 0.00 | 0.00 | 0.00 | 66 | 1014.3 |
| 20260504024900 | 46 | 306 | 0.0 | 0.0 | 0.00 | 0.00 | 0.00 | 65 | 1014.3 |
| 20260504024356 | 46 | 306 | 0.0 | 0.0 | 0.00 | 0.00 | 0.00 | 66 | 1014.1 |
| 20260504023854 | 46 | 301 | 0.0 | 0.0 | 0.00 | 0.00 | 0.00 | 66 | 1014.4 |
| 20260504023350 | 45 | 298 | 0.0 | 0.0 | 0.00 | 0.00 | 0.00 | 70 | 1014.2 |
| 20260504022846 | 46 | 299 | 0.0 | 0.0 | 0.00 | 0.00 | 0.00 | 72 | 1014.0 |
| 20260504022343 | 46 | 279 | 0.0 | 0.0 | 0.00 | 0.00 | 0.00 | 67 | 1014.2 |
| 20260504021839 | 46 | 298 | 0.0 | 0.0 | 0.00 | 0.00 | 0.00 | 68 | 1014.0 |
| 20260504021337 | 46 | 323 | 0.0 | 0.0 | 0.00 | 0.00 | 0.00 | 70 | 1014.0 |
| 20260504020834 | 48 | 317 | 0.0 | 0.0 | 0.00 | 0.00 | 0.00 | 65 | 1014.0 |
| 20260504020331 | 49 | 297 | 0.0 | 0.0 | 0.00 | 0.00 | 0.00 | 60 | 1014.0 |
| 20260504015826 | 49 | 293 | 0.0 | 0.0 | 0.00 | 0.00 | 0.00 | 59 | 1013.8 |
| 20260504015323 | 49 | 290 | 0.0 | 0.0 | 0.00 | 0.00 | 0.00 | 59 | 1013.9 |
| 20260504014819 | 49 | 276 | 0.0 | 0.0 | 0.00 | 0.00 | 0.00 | 59 | 1014.0 |
| 20260504014315 | 48 | 286 | 0.0 | 0.0 | 0.00 | 0.00 | 0.00 | 61 | 1014.0 |
| 20260504013813 | 49 | 308 | 0.0 | 0.0 | 0.00 | 0.00 | 0.00 | 58 | 1013.9 |
| 20260504013311 | 50 | 308 | 0.0 | 0.0 | 0.00 | 0.00 | 0.00 | 58 | 1013.9 |
| 20260504012807 | 50 | 310 | 0.0 | 0.0 | 0.00 | 0.00 | 0.00 | 57 | 1013.6 |
| 20260504012305 | 50 | 303 | 0.0 | 0.0 | 0.00 | 0.00 | 0.00 | 56 | 1013.8 |
| 20260504011802 | 50 | 305 | 0.0 | 0.0 | 0.00 | 0.00 | 0.00 | 57 | 1013.5 |
| 20260504011258 | 51 | 305 | 0.0 | 0.0 | 0.00 | 0.00 | 0.00 | 56 | 1013.4 |
| 20260504010754 | 51 | 303 | 0.0 | 0.0 | 0.00 | 0.00 | 0.00 | 55 | 1013.4 |
| 20260504010250 | 51 | 302 | 0.0 | 0.0 | 0.00 | 0.00 | 0.00 | 53 | 1013.5 |
| 20260504005747 | 53 | 302 | 0.0 | 0.0 | 0.00 | 0.00 | 0.00 | 52 | 1013.5 |
| 20260504005244 | 53 | 308 | 0.0 | 0.0 | 0.00 | 0.00 | 0.00 | 48 | 1013.5 |
| 20260504004742 | 54 | 308 | 0.0 | 0.0 | 0.00 | 0.00 | 0.00 | 47 | 1013.5 |
| 20260504004239 | 53 | 300 | 0.0 | 0.0 | 0.00 | 0.00 | 0.00 | 48 | 1013.5 |
| 20260504003735 | 53 | 305 | 0.0 | 0.0 | 0.00 | 0.00 | 0.00 | 47 | 1013.6 |
| 20260504003232 | 55 | 317 | 0.0 | 0.0 | 0.00 | 0.00 | 0.00 | 49 | 1013.3 |
| 20260504002729 | 56 | 301 | 0.0 | 0.0 | 0.00 | 0.00 | 0.00 | 42 | 1013.5 |
| 20260504002226 | 56 | 302 | 0.0 | 0.0 | 0.00 | 0.00 | 0.00 | 42 | 1013.5 |
| 20260504001724 | 57 | 302 | 0.0 | 0.0 | 0.00 | 0.00 | 0.00 | 40 | 1013.2 |
| 20260504001220 | 57 | 295 | 0.0 | 0.0 | 0.00 | 0.00 | 0.00 | 39 | 1013.3 |
| 20260504000717 | 57 | 305 | 0.0 | 0.0 | 0.00 | 0.00 | 0.00 | 40 | 1013.1 |
| 20260504000214 | 57 | 306 | 0.0 | 0.0 | 0.00 | 0.00 | 0.00 | 39 | 1013.2 |
| 20260503235713 | 58 | 289 | 0.0 | 0.0 | 0.00 | 0.00 | 0.00 | 39 | 1013.2 |
| 20260503235209 | 58 | 292 | 0.0 | 0.0 | 0.00 | 0.00 | 0.00 | 39 | 1013.3 |
| 20260503234707 | 58 | 306 | 0.0 | 0.0 | 0.00 | 0.00 | 0.00 | 39 | 1013.1 |
| 20260503234205 | 58 | 290 | 0.0 | 2.0 | 0.00 | 0.00 | 0.00 | 39 | 1013.0 |
| 20260503233701 | 59 | 303 | 2.0 | 2.0 | 0.00 | 0.00 | 0.00 | 38 | 1012.9 |
| 20260503233157 | 59 | 301 | 2.0 | 5.0 | 0.00 | 0.00 | 0.00 | 38 | 1013.0 |
| 20260503232654 | 59 | 313 | 3.0 | 3.0 | 0.00 | 0.00 | 0.00 | 38 | 1012.8 |
| 20260503232151 | 60 | 307 | 3.0 | 3.0 | 0.00 | 0.00 | 0.00 | 37 | 1013.0 |
| 20260503231650 | 61 | 315 | 4.0 | 5.0 | 0.00 | 0.00 | 0.00 | 37 | 1013.0 |
| 20260503231145 | 61 | 305 | 1.0 | 6.0 | 0.00 | 0.00 | 0.00 | 34 | 1012.7 |
| 20260503230642 | 61 | 273 | 6.0 | 9.0 | 0.00 | 0.00 | 0.00 | 34 | 1012.9 |
| 20260503230139 | 61 | 264 | 2.0 | 6.0 | 0.00 | 0.00 | 0.00 | 36 | 1012.6 |
| 20260503225637 | 62 | 300 | 4.0 | 6.0 | 0.00 | 0.00 | 0.00 | 36 | 1012.6 |
| 20260503225136 | 62 | 271 | 5.0 | 9.0 | 0.00 | 0.00 | 0.00 | 34 | 1012.6 |
| 20260503224634 | 62 | 260 | 5.0 | 7.0 | 0.00 | 0.00 | 0.00 | 35 | 1012.6 |
| 20260503224132 | 61 | 326 | 4.0 | 7.0 | 0.00 | 0.00 | 0.00 | 34 | 1012.8 |
| 20260503223630 | 61 | 336 | 5.0 | 7.0 | 0.00 | 0.00 | 0.00 | 36 | 1012.9 |
| 20260503223126 | 62 | 323 | 4.0 | 11.0 | 0.00 | 0.00 | 0.00 | 34 | 1012.9 |
| 20260503222623 | 62 | 312 | 1.0 | 3.0 | 0.00 | 0.00 | 0.00 | 35 | 1012.8 |
| 20260503222121 | 61 | 252 | 4.0 | 8.0 | 0.00 | 0.00 | 0.00 | 35 | 1012.8 |
| 20260503221619 | 61 | 303 | 6.0 | 10.0 | 0.00 | 0.00 | 0.00 | 35 | 1012.7 |
| 20260503221116 | 61 | 280 | 6.0 | 10.0 | 0.00 | 0.00 | 0.00 | 36 | 1012.7 |
| 20260503220613 | 61 | 336 | 7.0 | 9.0 | 0.00 | 0.00 | 0.00 | 36 | 1013.0 |
| 20260503220109 | 61 | 316 | 2.0 | 7.0 | 0.00 | 0.00 | 0.00 | 36 | 1012.8 |
| 20260503215607 | 61 | 325 | 4.0 | 8.0 | 0.00 | 0.00 | 0.00 | 35 | 1012.9 |
| 20260503215103 | 61 | 333 | 5.0 | 9.0 | 0.00 | 0.00 | 0.00 | 36 | 1012.9 |
| 20260503214602 | 62 | 310 | 8.0 | 11.0 | 0.00 | 0.00 | 0.00 | 35 | 1012.7 |
| 20260503214058 | 62 | 305 | 5.0 | 8.0 | 0.00 | 0.00 | 0.00 | 35 | 1012.7 |
| 20260503213557 | 62 | 297 | 2.0 | 6.0 | 0.00 | 0.00 | 0.00 | 35 | 1013.0 |
| 20260503213053 | 62 | 289 | 5.0 | 15.0 | 0.00 | 0.00 | 0.00 | 36 | 1012.7 |
| 20260503212550 | 62 | 281 | 2.0 | 9.0 | 0.00 | 0.00 | 0.00 | 36 | 1013.1 |
| 20260503212047 | 62 | 276 | 4.0 | 7.0 | 0.00 | 0.00 | 0.00 | 36 | 1012.7 |
| 20260503211545 | 62 | 301 | 1.0 | 8.0 | 0.00 | 0.00 | 0.00 | 38 | 1012.7 |
| 20260503211040 | 62 | 292 | 10.0 | 15.0 | 0.00 | 0.00 | 0.00 | 36 | 1012.9 |
| 20260503210537 | 62 | 310 | 4.0 | 8.0 | 0.00 | 0.00 | 0.00 | 36 | 1012.9 |
| 20260503210033 | 63 | 296 | 1.0 | 5.0 | 0.00 | 0.00 | 0.00 | 38 | 1012.7 |
| 20260503205530 | 62 | 301 | 2.0 | 7.0 | 0.00 | 0.00 | 0.00 | 36 | 1012.9 |
| 20260503205026 | 61 | 327 | 4.0 | 8.0 | 0.00 | 0.00 | 0.00 | 35 | 1012.8 |
| 20260503204523 | 61 | 314 | 9.0 | 17.0 | 0.00 | 0.00 | 0.00 | 37 | 1012.8 |
| 20260503204020 | 60 | 323 | 8.0 | 14.0 | 0.00 | 0.00 | 0.00 | 37 | 1012.9 |
| 20260503203517 | 60 | 324 | 7.0 | 11.0 | 0.00 | 0.00 | 0.00 | 37 | 1013.1 |
| 20260503203014 | 61 | 315 | 7.0 | 10.0 | 0.00 | 0.00 | 0.00 | 39 | 1013.2 |
| 20260503202512 | 61 | 319 | 6.0 | 10.0 | 0.00 | 0.00 | 0.00 | 37 | 1013.1 |
| 20260503202010 | 59 | 299 | 1.0 | 9.0 | 0.00 | 0.00 | 0.00 | 41 | 1013.2 |
| 20260503201508 | 59 | 330 | 8.0 | 11.0 | 0.00 | 0.00 | 0.00 | 36 | 1013.2 |
| 20260503201005 | 59 | 319 | 6.0 | 9.0 | 0.00 | 0.00 | 0.00 | 39 | 1013.2 |
| 20260503200501 | 61 | 293 | 8.0 | 14.0 | 0.00 | 0.00 | 0.00 | 35 | 1013.5 |
| 20260503195957 | 61 | 250 | 4.0 | 13.0 | 0.00 | 0.00 | 0.00 | 34 | 1013.4 |
| 20260503195455 | 61 | 301 | 4.0 | 6.0 | 0.00 | 0.00 | 0.00 | 36 | 1013.3 |
| 20260503194951 | 60 | 335 | 5.0 | 9.0 | 0.00 | 0.00 | 0.00 | 38 | 1013.5 |
| 20260503194449 | 60 | 323 | 7.0 | 9.0 | 0.00 | 0.00 | 0.00 | 35 | 1013.6 |
| 20260503193944 | 60 | 300 | 7.0 | 11.0 | 0.00 | 0.00 | 0.00 | 35 | 1013.7 |
| 20260503193439 | 60 | 279 | 5.0 | 11.0 | 0.00 | 0.00 | 0.00 | 35 | 1014.0 |
| 20260503192935 | 59 | 316 | 8.0 | 15.0 | 0.00 | 0.00 | 0.00 | 38 | 1013.8 |
| 20260503192432 | 59 | 284 | 7.0 | 10.0 | 0.00 | 0.00 | 0.00 | 35 | 1013.9 |
| 20260503191927 | 58 | 324 | 6.0 | 14.0 | 0.00 | 0.00 | 0.00 | 37 | 1013.9 |
| 20260503191425 | 59 | 266 | 5.0 | 7.0 | 0.00 | 0.00 | 0.00 | 35 | 1014.3 |
| 20260503190921 | 58 | 332 | 13.0 | 16.0 | 0.00 | 0.00 | 0.00 | 37 | 1014.2 |
| 20260503190419 | 57 | 321 | 7.0 | 14.0 | 0.00 | 0.00 | 0.00 | 36 | 1014.2 |
| 20260503185915 | 59 | 272 | 9.0 | 10.0 | 0.00 | 0.00 | 0.00 | 40 | 1014.3 |
| 20260503185412 | 60 | 303 | 3.0 | 10.0 | 0.00 | 0.00 | 0.00 | 37 | 1014.5 |
| 20260503184911 | 58 | 272 | 4.0 | 15.0 | 0.00 | 0.00 | 0.00 | 38 | 1014.5 |
| 20260503184408 | 58 | 323 | 9.0 | 10.0 | 0.00 | 0.00 | 0.00 | 41 | 1014.2 |
| 20260503183904 | 58 | 331 | 5.0 | 9.0 | 0.00 | 0.00 | 0.00 | 37 | 1014.7 |
| 20260503183401 | 59 | 254 | 10.0 | 14.0 | 0.00 | 0.00 | 0.00 | 35 | 1014.8 |
| 20260503182858 | 58 | 329 | 6.0 | 13.0 | 0.00 | 0.00 | 0.00 | 37 | 1014.8 |
| 20260503182357 | 58 | 312 | 11.0 | 16.0 | 0.00 | 0.00 | 0.00 | 38 | 1014.8 |
| 20260503181854 | 59 | 174 | 4.0 | 13.0 | 0.00 | 0.00 | 0.00 | 38 | 1014.7 |
| 20260503181351 | 57 | 286 | 8.0 | 13.0 | 0.00 | 0.00 | 0.00 | 36 | 1014.8 |
| 20260503180847 | 56 | 322 | 11.0 | 15.0 | 0.00 | 0.00 | 0.00 | 40 | 1014.9 |
| 20260503180345 | 57 | 349 | 11.0 | 14.0 | 0.00 | 0.00 | 0.00 | 38 | 1014.9 |
| 20260503175842 | 57 | 309 | 10.0 | 13.0 | 0.00 | 0.00 | 0.00 | 37 | 1015.1 |
| 20260503175340 | 56 | 310 | 10.0 | 17.0 | 0.00 | 0.00 | 0.00 | 41 | 1015.1 |
| 20260503174835 | 56 | 320 | 7.0 | 13.0 | 0.00 | 0.00 | 0.00 | 39 | 1015.3 |
| 20260503174333 | 56 | 237 | 12.0 | 14.0 | 0.00 | 0.00 | 0.00 | 39 | 1015.2 |
| 20260503173828 | 56 | 300 | 4.0 | 8.0 | 0.00 | 0.00 | 0.00 | 42 | 1015.4 |
| 20260503173325 | 56 | 323 | 4.0 | 8.0 | 0.00 | 0.00 | 0.00 | 41 | 1015.3 |
| 20260503172822 | 55 | 311 | 4.0 | 8.0 | 0.00 | 0.00 | 0.00 | 42 | 1015.5 |
| 20260503172320 | 57 | 266 | 5.0 | 15.0 | 0.00 | 0.00 | 0.00 | 42 | 1015.4 |
| 20260503171815 | 56 | 304 | 3.0 | 5.0 | 0.00 | 0.00 | 0.00 | 44 | 1015.3 |
| 20260503171312 | 54 | 305 | 8.0 | 13.0 | 0.00 | 0.00 | 0.00 | 40 | 1015.5 |
| 20260503170809 | 55 | 282 | 9.0 | 13.0 | 0.00 | 0.00 | 0.00 | 44 | 1015.3 |
| 20260503170306 | 55 | 243 | 5.0 | 9.0 | 0.00 | 0.00 | 0.00 | 42 | 1015.7 |
| 20260503150658 | 51 | 347 | 16.0 | 21.0 | 0.00 | 0.00 | 0.00 | 47 | 1016.6 |
| 20260503150154 | 50 | 328 | 5.0 | 8.0 | 0.00 | 0.00 | 0.00 | 52 | 1016.3 |
| 20260503140119 | 48 | 333 | 7.0 | 13.0 | 0.00 | 0.00 | 0.00 | 56 | 1016.8 |
| 20260503131048 | 46 | 323 | 3.0 | 8.0 | 0.00 | 0.00 | 0.00 | 56 | 1016.8 |
| 20260503130545 | 46 | 325 | 5.0 | 9.0 | 0.00 | 0.00 | 0.00 | 58 | 1016.7 |
| 20260503110436 | 40 | 326 | 3.0 | 6.0 | 0.00 | 0.00 | 0.00 | 70 | 1015.8 |